Regional Weather Roundup
Issued by NWS Boston, MA

Current Version | Previous Version | Text Only | Print | Product List | Glossary Off
Versions: 1 2 3 4 5 6 7 8 9 10 11 12 13 14 15 16 17 18 19 20 21 22 23 24 25 26 27 28 29 30 31 32 33 34 35 36 37 38 39 40 41 42 43 44 45 46 47 48 49 50

000
ASUS41 KBOX 171910
RWRBOX

REGIONAL WEATHER ROUNDUP
NATIONAL WEATHER SERVICE TAUNTON MA
300 PM EDT FRI APR 17 2015

NOTE:  "FAIR" INDICATES FEW OR NO CLOUDS BELOW 12,000 FEET WITH NO
SIGNIFICANT WEATHER AND/OR OBSTRUCTIONS TO VISIBILITY.  THE FOLLOWING
OBSERVATION LOCATIONS DO NOT REPORT PRESENT WEATHER...PROVINCETOWN...
SMITHFIELD...BLOCK ISLAND...KEENE...AND OXFORD.

MAZALL-172000-
EASTERN MASSACHUSETTS

CITY           SKY/WX    TMP DP  RH WIND       PRES   REMARKS
BOSTON         CLOUDY    62  52  69 W10G22    29.89F
BEVERLY        CLOUDY    61  50  67 W13       29.87F
LAWRENCE       CLOUDY    60  51  72 SW13      29.89F
BEDFORD        CLOUDY    60  51  72 W10       29.88F
BLUE HILL        N/A     59  52  77 W13G20    29.88F
NORWOOD        PTSUNNY   63  52  67 W10G18    29.89F
MARSHFIELD     PTSUNNY   63  55  77 SW10      29.91F
PLYMOUTH       CLOUDY    58  54  86 SW17G26   29.92F
TAUNTON        CLOUDY    60  54  80 SW8       29.91F
NEW BEDFORD    CLOUDY    57  55  93 W12G18    29.92F
$$

MAZALL-172000-
CAPE COD AND THE ISLANDS

CITY           SKY/WX    TMP DP  RH WIND       PRES   REMARKS
FALMOUTH       CLOUDY    52  52 100 W17G25    29.93F
HYANNIS        CLOUDY    54  53  97 SW13      29.91F
CHATHAM        LGT RAIN  50  50 100 SW10G21   29.94F FOG
PROVINCETOWN   CLOUDY    54  50  87 SW15      29.91F
NANTUCKET      CLOUDY    50  48  93 SW14      29.95F
MARTHAS VNYRD  CLOUDY    53  53 100 W14G24    29.94F FOG
$$

MAZALL-172000-
CENTRAL AND WESTERN MASSACHUSETTS

CITY           SKY/WX    TMP DP  RH WIND       PRES   REMARKS
WORCESTER      CLOUDY    57  51  80 W14       29.90F
FITCHBURG      CLOUDY    63  51  65 W14G20    29.89F
ORANGE         CLOUDY    60  50  69 W9        29.90F
SPRINGFIELD    CLOUDY    65  51  61 W12       29.89F
WESTFIELD      CLOUDY    65  51  60 W14       29.91F
NORTH ADAMS    CLOUDY    56  49  77 W6        29.92F
PITTSFIELD     CLOUDY    56  50  80 W9        29.91F
$$

RIZALL-172000-
RHODE ISLAND

CITY           SKY/WX    TMP DP  RH WIND       PRES   REMARKS
PROVIDENCE     CLOUDY    61  54  77 W13G20    29.92F
NEWPORT        CLOUDY    55  54  96 VRB5      29.93F
BLOCK ISLAND   CLOUDY    50  48  93 SW17G23   29.96F VSB 3/4
SMITHFIELD     PTSUNNY   61  50  67 W9        29.91F
WESTERLY       CLOUDY    53  52  96 SW6       29.95F FOG
$$

CTZALL-172000-
CONNECTICUT

CITY           SKY/WX    TMP DP  RH WIND       PRES   REMARKS
BRADLEY INTL   PTSUNNY   67  52  58 W6        29.90F
HARTFORD       CLOUDY    65  53  65 SW14G22   29.92F
BRIDGEPORT     CLOUDY    57  51  80 SW7       29.94F
DANBURY        PTSUNNY   64  52  64 SW9       29.95F
GROTON         CLOUDY    55  53  93 SW6       29.95F FOG
NEW HAVEN      CLOUDY    58  53  84 SW8G16    29.94F
CHESTER        CLOUDY    61  55  82 SW7       29.94F
MERIDEN        PTSUNNY   64  53  67 SW8       29.93F
WILLIMANTIC    CLOUDY    62  53  72 SW8       29.93F
OXFORD         PTSUNNY   63  54  72 W7        29.95F
$$

MEZ002-015-021-024-NHZ003-005-008-011-012-014-VTZ005-008-172000-
NORTHERN NEW ENGLAND

CITY           SKY/WX    TMP DP  RH WIND       PRES   REMARKS
PORTLAND ME    MOSUNNY   64  47  53 W17G24    29.83F
BANGOR ME      PTSUNNY   61  41  47 SW9       29.77F
CONCORD NH     CLOUDY    61  49  64 W5        29.86F
MANCHESTER NH  CLOUDY    61  48  62 W9        29.86F
NASHUA NH      CLOUDY    62  51  67 W9G16     29.88F
PORTSMOUTH NH  CLOUDY    61  50  68 W8        29.84F
JAFFREY NH     CLOUDY    56  49  77 SW10      29.89F
KEENE NH       CLOUDY    59  48  67 W7        29.90F
BURLINGTON VT  MOSUNNY   65  42  43 W10       29.84F
MT. WASHINGTON FOG       32  32 100 NW44G51     N/A  VSB 0   WCI  15
$$

NYZ052-076-172000-
EASTERN NEW YORK

CITY           SKY/WX    TMP DP  RH WIND       PRES   REMARKS
ALBANY         PTSUNNY   64  51  62 W10       29.93F
NEW YORK CITY  PTSUNNY   66  53  63 W14       29.94F
$$

ANZALL-172000-
MARINE OBSERVATIONS

STATION/POSITION TIME  TEMP    WIND        PRES    VSBY  WAVE
                       AIR SEA DIR/SP/G                  HT/PER
                 (UTC) (F)     (DEG/KT/KT) (MB)    (MI)  (FT/S)
BOSTON BUOY      1850   51 42  250/ 12/ 14 1012.3F         1/ 9
BUZZARDS BAY     1900          230/ 15/ 16 1014.2F
NANTUCKET SOUND  1850   48 44  230/ 14/ 16 1014.0F         1/ 4
MASS BAY-STELLWA 1804   47 42  210/ 12/ 12   N/A    1 7/8  2/ 4
ISLE OF SHOALS   1900   58     260/ 15/ 16 1010.2F
S OF BLOCK IS    1808      40                N/A           4/ 9
$$

......................KEY.........................
  SKY/WX - SKY CONDITION/PRESENT WEATHER
  TMP    - TEMPERATURE IN FAHRENHEIT
  DWPT   - DEWPOINT IN FAHRENHEIT
  RH     - RELATIVE HUMIDITY IN PERCENT
  WIND   - DIRECTION AND SPEED IN MPH
  PRES   - MEAN SEA LEVEL PRESSURE IN INCHES OF HG
  WCI    - WIND CHILL INDEX
  VSB    - VISIBILITY IN MILES
  HX     - HEAT INDEX
  TC     - TEMPERATURE IN CELSIUS
  VRB    - VARIABLE WIND DIRECTION
  N/A    - NOT AVAILABLE



USA.gov is the U.S. government's official web portal to all federal, state and local government web resources and services.